STELLA

Last updated on Sat Sep 05 2026 00:03:39 GMT+0000 (Coordinated Universal Time)

1 22824U 93061B 26247.62952743 -.00000051 00000+0 -23682-5 0 9999 2 22824 98.7651 312.1375 0006585 15.6733 155.9043 14.27472246716108
UTC large
Height (km)
Speed (km/s)
/
Latitude / Longitude
Inclination (degrees)
Orbital Period (minutes)
Azimuth
Elevation
Range (km)
Doppler Factor

Next 0 passes for location: London (51.5072 / 0.1276)

No passes found over London.
STELLA